Regional Weather Roundup
Issued by NWS

Home | Current Version | Previous Version | Graphics & Text | Print | Product List | Glossary On
Versions: 1 2 3 4 5 6 7 8 9 10 11 12 13 14 15 16 17 18 19 20 21 22 23 24 25 26 27 28 29 30 31 32 33 34 35 36 37 38 39 40 41 42 43 44 45 46 47 48 49 50
000
ASUS43 KDTX 170501
RWRMI
MICHIGAN HOURLY REGIONAL WEATHER ROUNDUP
NATIONAL WEATHER SERVICE DETROIT/PONTIAC MI
100 AM EDT TUE OCT 17 2017

NOTE: "FAIR" INDICATES FEW OR NO CLOUDS BELOW 12,000 FEET WITH NO
SIGNIFICANT WEATHER AND/OR OBSTRUCTION TO VISIBILITY.

MIZ047>049-052>055-059>063-066>070-074>076-081>083-170600-
SOUTHEAST LOWER MICHIGAN

CITY           SKY/WX    TMP DP  RH WIND       PRES   REMARKS
ADRIAN         CLEAR     42  39  89 SW3       30.26S
ALMA           CLEAR     43  38  84 S6        30.19F
ANN ARBOR      CLEAR     34  34 100 CALM      30.24S FOG
BAD AXE        CLEAR     41  36  81 S5        30.20S
CARO           CLEAR     39  37  89 SW3       30.20F
DETROIT CITY   CLEAR     46  40  79 SW3       30.25S
DETROIT        CLEAR     45  40  82 S7        30.26S
FLINT          CLEAR     43  38  82 S5        30.22F
GROSSE ILE     CLEAR     50  42  72 SW6       30.24S
HILLSDALE      CLEAR     43  37  81 S6        30.24R
HOWELL         CLEAR     43  40  89 S3        30.23S

CITY           SKY/WX    TMP DP  RH WIND       PRES   REMARKS
JACKSON        CLEAR     41  37  86 S5        30.23S
LAMBERTVILLE   CLEAR     45  41  84 S3        30.25F
LANSING        CLEAR     43  37  79 S7        30.22F
LAPEER         FAIR      40  38  91 SW3       30.22F
MASON          CLEAR     44  38  82 S3        30.23S
MONROE         CLEAR     46  40  79 SW5       30.25S
MT. CLEMENS    CLEAR     45  40  81 SW6       30.22S
PONTIAC        CLEAR     43  40  89 CALM      30.22S
PORT HOPE        N/A     45  37  73 VRB3      30.17F
PORT HURON     CLEAR     37  36  93 CALM      30.23F
TRI CITIES     CLEAR     44  41  89 S8        30.20S
MIDLAND        FAIR      41  38  89 CALM      30.18S
TROY           CLEAR     44  39  82 CALM      30.26R
SAGINAW HB     CLEAR     43  37  81 S7        30.19F
$$
MIZ043>046-050>051-056>058-064>065-071>073-077>080-170600-
SOUTHWEST LOWER MICHIGAN

CITY           SKY/WX    TMP DP  RH WIND       PRES   REMARKS
BATTLE CREEK   CLEAR     45  39  79 S9        30.22S
BENTON HARBOR  CLEAR     43  39  86 CALM      30.21F
BIG RAPIDS     CLEAR     40  37  89 SE6       30.15F
COLDWATER      CLEAR     47  38  70 S3        30.24R
FREMONT        FAIR      43  41  94 CALM      30.16F
HOLLAND        CLEAR     45  39  79 S5        30.20S
GRAND RAPIDS   CLEAR     46  40  79 S10       30.19F
IONIA          FAIR      45  37  75 S8        30.19F
LUDINGTON      CLEAR     56  40  54 SW13G18   30.12F
MARSHALL       CLEAR     44  38  81 S3        30.23S
MOUNT PLEASANT CLEAR     48  38  66 S8        30.16F
MUSKEGON       CLEAR     56  39  53 SW10      30.17F
SOUTH HAVEN    CLEAR     47  40  77 S3        30.21S
$$
MIZ016>042-170600-
NORTHERN LOWER MICHIGAN

CITY           SKY/WX    TMP DP  RH WIND       PRES   REMARKS
ALPENA         CLEAR     39  37  92 S6        30.14F WCI  35
BEAVER ISLAND  PTCLDY    56  43  61 SW17G24   30.03F
BELLAIRE       CLEAR     47  40  75 CALM      30.10F
CADILLAC       CLEAR     42  38  86 SW6       30.12F
CHARLEVOIX     CLEAR     48  42  79 S8        30.10S
FRANKFORT      CLEAR     58  42  54 SW7G16    30.09F
GAYLORD        CLEAR     43  36  76 SW10      30.09F
GRAYLING       CLEAR     43  37  77 SW5       30.13S
HARBOR SPRINGS CLEAR     48  40  73 S8G21     30.06F
HOUGHTON LAKE  CLEAR     46  39  76 S10       30.14F
MANISTEE       CLEAR     40  38  93 E5        30.12F
OSCODA         CLEAR     39  37  91 SW6       30.16S WCI  35
PELLSTON       CLEAR     48  40  73 S9        30.07F
ROGERS CITY    CLEAR     42  37  82 S8        30.11F
TRAVERSE CITY  CLEAR     49  40  71 VRB6      30.08F
$$
MIZ007>008-015-170600-
EASTERN UPPER MICHIGAN

CITY           SKY/WX    TMP DP  RH WIND       PRES   REMARKS
KINROSS        MOCLDY    47  43  86 S8        30.03F
MACKINAC ISLAN CLEAR     49  41  73 S10G18    30.04F
NEWBERRY       CLOUDY    48  42  80 S10       29.99F
S. S. MARIE    PTCLDY    46  41  82 S7        30.02F
MUNISING         N/A     51  39  63 SW10      29.96F
$$
MIZ004>006-011>014-085-170600-
CENTRAL UPPER MICHIGAN

CITY           SKY/WX    TMP DP  RH WIND       PRES   REMARKS
MANISTIQUE     CLOUDY    54  39  57 SW9G18    30.01S
ESCANABA       CLOUDY    50  38  63 SW13G18   30.00F
MENOMINEE      CLEAR     51  38  60 SW10      30.04F
SAWYER-GWINN   CLOUDY    47  37  66 SW10      29.96F
$$
MIZ001>003-009>011-084-170600-
WESTERN UPPER MICHIGAN

CITY           SKY/WX    TMP DP  RH WIND       PRES   REMARKS
IRON MOUNTAIN  PTCLDY    43  34  70 SE3       29.98F
HOUGHTON       CLOUDY    50  34  54 SW10      29.86F
COPPER HARBOR    N/A     53  35  50 W13G23    29.83F
IRONWOOD       MOCLDY    54  35  48 SW13G22   29.90F
$$

ABBREVIATIONS USED IN REMARKS
   TC - TEMPERATURE IN CELSIUS
  WCI - WIND CHILL INDEX
   HX - HEAT INDEX
  VSB - VISIBILITY





USA.gov is the U.S. government's official web portal to all federal, state and local government web resources and services.